Weather History for Phoenix-Mesa Gateway Airport, AZ

Change the Weather History Date:

Friday, October 4, 2013

  Actual Average Record
Temperature  
Mean Temperature 74 °F -  
Max Temperature 86 °F 90 °F 100 °F (2006)
Min Temperature 62 °F 64 °F 53 °F (2002)
Cooling Degree Days 9    
Growing Degree Days 24 (Base 50)    
Moisture  
Dew Point 29 °F    
Average Humidity 26    
Maximum Humidity 49    
Minimum Humidity 8    
Precipitation  
Precipitation 0.00 in - - ()
Sea Level Pressure  
Sea Level Pressure 29.91 in    
Wind  
Wind Speed 4 mph (ENE)    
Max Wind Speed 12 mph    
Max Gust Speed 18 mph    
Visibility 12 miles    
Events      
Averages and records for this station are not official NWS values.
T = Trace of Precipitation, MM = Missing Value Source: NWS Daily Summary

Daily Weather History Graph

Daily Weather History Graph

Search for Another Location

Airport:

Trip Planner

Search our weather history database for the weather conditions in past years. The results will help you decide how hot, cold, wet, or windy it might be!

Date:

Astronomy

Oct. 04, 2013 Rise Set
Actual Time 6:23 AM MST 6:06 PM MST
Civil Twilight 5:58 AM MST 6:31 PM MST
Nautical Twilight 5:29 AM MST 7:00 PM MST
Astronomical Twilight 5:00 AM MST 7:28 PM MST
Moon 6:01 AM MST (10/4) 5:53 PM MST (10/4)
Length of Visible Light 12h 32m
Length of Day
11h 43m
Waning Crescent, 0% of the Moon is Illuminated
Oct 4
Waning Crescent
Oct 4
New
Oct 11
First Quarter
Oct 18
Full
Oct 26
Last Quarter

Hourly Weather History & Observations

Time (MST) Temp. Dew Point Humidity Pressure Visibility Wind Dir Wind Speed Gust Speed Precip Events Conditions
12:15 AM 71.6 °F 44.6 °F 38% 29.80 in 10.0 mi Calm Calm - N/A   Clear
12:35 AM 73.4 °F 41.0 °F 31% 29.81 in 10.0 mi Calm Calm - N/A   Clear
12:55 AM 75.2 °F 41.0 °F 29% 29.82 in 10.0 mi Calm Calm - N/A   Clear
1:15 AM 69.8 °F 41.0 °F 35% 29.82 in 10.0 mi East 5.8 mph - N/A   Clear
1:35 AM 69.8 °F 41.0 °F 35% 29.82 in 10.0 mi East 5.8 mph - N/A   Clear
1:55 AM 68.0 °F 41.0 °F 37% 29.83 in 10.0 mi ESE 4.6 mph - N/A   Clear
2:15 AM 66.2 °F 42.8 °F 43% 29.83 in 10.0 mi East 3.5 mph - N/A   Clear
2:35 AM 64.4 °F 42.8 °F 45% 29.83 in 10.0 mi East 5.8 mph - N/A   Clear
2:55 AM 64.4 °F 42.8 °F 45% 29.83 in 10.0 mi East 6.9 mph - N/A   Clear
3:15 AM 64.4 °F 44.6 °F 49% 29.83 in 10.0 mi ESE 5.8 mph - N/A   Clear
3:35 AM 64.4 °F 44.6 °F 49% 29.83 in 10.0 mi ESE 5.8 mph - N/A   Clear
3:55 AM 64.4 °F 44.6 °F 49% 29.84 in 10.0 mi East 6.9 mph - N/A   Clear
4:15 AM 64.4 °F 44.6 °F 49% 29.85 in 10.0 mi East 5.8 mph - N/A   Clear
4:35 AM 64.4 °F 42.8 °F 45% 29.85 in 10.0 mi East 5.8 mph - N/A   Clear
4:47 AM 64.4 °F 44.6 °F 49% 29.85 in 20.0 mi East 6.9 mph - N/A   Clear
4:55 AM 64.4 °F 42.8 °F 45% 29.86 in 10.0 mi East 5.8 mph - N/A   Clear
5:35 AM 64.4 °F 41.0 °F 42% 29.87 in 10.0 mi ESE 6.9 mph - N/A   Clear
6:47 AM 62.6 °F 39.2 °F 42% 29.89 in 45.0 mi ESE 4.6 mph - N/A   Clear
7:47 AM 66.2 °F 41.0 °F 40% 29.91 in 45.0 mi ESE 4.6 mph - N/A   Clear
8:47 AM 73.4 °F 41.0 °F 31% 29.93 in 45.0 mi ESE 4.6 mph - N/A   Clear
9:47 AM 78.8 °F 44.6 °F 30% 29.95 in 45.0 mi Variable 4.6 mph - N/A   Clear
10:47 AM 78.8 °F 39.2 °F 24% 29.95 in 45.0 mi Calm Calm - N/A   Clear
11:47 AM 80.6 °F 41.0 °F 24% 29.95 in 45.0 mi West 5.8 mph - N/A   Clear
1:47 PM 84.2 °F 35.6 °F 18% 29.91 in 35.0 mi Variable 5.8 mph - N/A   Clear
2:47 PM 84.2 °F 28.4 °F 13% 29.92 in 35.0 mi WNW 10.4 mph - N/A   Clear
3:47 PM 86.0 °F 23.0 °F 10% 29.90 in 35.0 mi WNW 5.8 mph - N/A   Clear
4:47 PM 84.2 °F 21.2 °F 10% 29.91 in 35.0 mi West 11.5 mph 18.4 mph N/A   Clear
5:47 PM 84.2 °F 15.8 °F 8% 29.92 in 30.0 mi West 9.2 mph 18.4 mph N/A   Clear
6:47 PM 78.8 °F 12.2 °F 8% 29.93 in 20.0 mi WNW 9.2 mph - N/A   Clear
7:47 PM 75.2 °F 10.4 °F 8% 29.93 in 20.0 mi West 5.8 mph - N/A   Clear
7:55 PM 75.2 °F 14.0 °F 10% 29.95 in 10.0 mi West 4.6 mph - N/A   Clear
8:15 PM 73.4 °F 12.2 °F 10% 29.96 in 10.0 mi West 4.6 mph - N/A   Clear
8:35 PM 71.6 °F 14.0 °F 11% 29.96 in 10.0 mi West 5.8 mph - N/A   Clear
8:47 PM 73.4 °F 12.2 °F 10% 29.97 in 20.0 mi West 3.5 mph - N/A   Clear
8:55 PM 71.6 °F 14.0 °F 11% 29.97 in 10.0 mi West 4.6 mph - N/A   Clear
9:15 PM 71.6 °F 14.0 °F 11% 29.97 in 10.0 mi Calm Calm - N/A   Clear
9:35 PM 66.2 °F 14.0 °F 13% 29.98 in 10.0 mi East 4.6 mph - N/A   Clear
9:47 PM 66.2 °F 12.2 °F 12% 29.98 in 20.0 mi Calm Calm - N/A   Clear
9:55 PM 64.4 °F 14.0 °F 14% 29.98 in 10.0 mi Calm Calm - N/A   Clear
10:15 PM 64.4 °F 14.0 °F 14% 29.99 in 10.0 mi ENE 5.8 mph - N/A   Clear
10:35 PM 64.4 °F 14.0 °F 14% 29.99 in 10.0 mi ENE 3.5 mph - N/A   Clear
10:47 PM 64.4 °F 14.0 °F 14% 29.99 in 20.0 mi East 3.5 mph - N/A   Clear
10:55 PM 62.6 °F 14.0 °F 15% 30.00 in 10.0 mi ESE 5.8 mph - N/A   Clear
11:15 PM 62.6 °F 14.0 °F 15% 30.00 in 10.0 mi NE 3.5 mph - N/A   Clear
11:35 PM 62.6 °F 15.8 °F 16% 30.01 in 10.0 mi NNE 8.1 mph - N/A   Clear
11:47 PM 64.4 °F 15.8 °F 15% 30.01 in 20.0 mi North 5.8 mph - N/A   Clear
11:55 PM 64.4 °F 15.8 °F 15% 30.02 in 10.0 mi Calm Calm - N/A   Clear